Time,TemperatureF,DewpointF,PressureIn,WindDirection,WindDirectionDegrees,WindSpeedMPH,WindSpeedGustMPH,Humidity,HourlyPrecipIn,Conditions,Clouds,dailyrainin,SolarRadiationWatts/m^2,SoftwareType,DateUTC
2013-01-27 00:00:00,13.2,2.9,30.23,WNW,284,3.5,9.2,63,0.00,CLR,,0.00,0.0,WeatherDisplay:10.37,2013-01-27 05:00:00,
2013-01-27 00:01:00,13.2,2.9,30.23,WNW,284,3.4,9.2,63,0.00,CLR,,0.00,0.0,WeatherDisplay:10.37,2013-01-27 05:01:00,
2013-01-27 00:06:00,13.2,2.9,30.22,NNW,345,2.2,9.2,63,0.00,CLR,,0.00,0.0,WeatherDisplay:10.37,2013-01-27 05:06:00,
2013-01-27 00:12:00,13.1,2.9,30.23,WNW,284,4.0,8.1,63,0.00,CLR,,0.00,0.0,WeatherDisplay:10.37,2013-01-27 05:12:00,
2013-01-27 00:17:00,13.1,2.9,30.22,WNW,292,3.4,9.2,63,0.00,CLR,,0.00,0.0,WeatherDisplay:10.37,2013-01-27 05:17:00,
2013-01-27 00:22:00,13.0,2.8,30.22,West,261,3.2,10.4,63,0.00,CLR,,0.00,0.0,WeatherDisplay:10.37,2013-01-27 05:22:00,
2013-01-27 00:27:00,13.0,2.8,30.22,WSW,254,3.2,5.8,63,0.00,CLR,,0.00,0.0,WeatherDisplay:10.37,2013-01-27 05:27:00,
2013-01-27 00:32:00,12.9,3.0,30.22,NW,319,2.1,4.6,64,0.00,CLR,,0.00,0.0,WeatherDisplay:10.37,2013-01-27 05:32:00,
2013-01-27 00:37:00,12.9,3.0,30.23,SW,219,2.0,3.5,64,0.00,CLR,,0.00,0.0,WeatherDisplay:10.37,2013-01-27 05:37:00,
2013-01-27 00:42:00,12.8,2.9,30.23,NW,316,2.4,11.5,64,0.00,CLR,,0.00,0.0,WeatherDisplay:10.37,2013-01-27 05:42:00,
2013-01-27 00:47:00,12.8,2.9,30.23,NNW,329,0.5,2.3,64,0.00,CLR,,0.00,0.0,WeatherDisplay:10.37,2013-01-27 05:47:00,
2013-01-27 00:52:00,12.8,2.9,30.23,WNW,287,1.9,4.6,64,0.00,CLR,,0.00,0.0,WeatherDisplay:10.37,2013-01-27 05:52:00,
2013-01-27 00:57:00,12.8,2.9,30.23,NNW,336,0.5,2.3,64,0.00,CLR,,0.00,0.0,WeatherDisplay:10.37,2013-01-27 05:57:00,
2013-01-27 01:02:00,12.8,3.2,30.23,WNW,295,1.0,4.6,65,0.00,CLR,,0.00,0.0,WeatherDisplay:10.37,2013-01-27 06:02:00,
2013-01-27 01:07:00,12.7,3.1,30.23,WNW,288,1.8,5.8,65,0.00,CLR,,0.00,0.0,WeatherDisplay:10.37,2013-01-27 06:07:00,
2013-01-27 01:12:00,12.6,2.7,30.24,West,271,0.7,7.0,64,0.00,CLR,,0.00,0.0,WeatherDisplay:10.37,2013-01-27 06:12:00,
2013-01-27 01:17:00,12.6,3.1,30.24,WNW,284,0.9,2.3,65,0.00,CLR,,0.00,0.0,WeatherDisplay:10.37,2013-01-27 06:17:00,
2013-01-27 01:22:00,12.5,3.0,30.24,NW,323,0.8,3.5,65,0.00,CLR,,0.00,0.0,WeatherDisplay:10.37,2013-01-27 06:22:00,
2013-01-27 01:27:00,12.5,3.0,30.24,NNW,338,1.6,4.6,65,0.00,CLR,,0.00,0.0,WeatherDisplay:10.37,2013-01-27 06:27:00,
2013-01-27 01:32:00,12.6,3.1,30.25,NW,321,3.1,5.8,65,0.00,CLR,,0.00,0.0,WeatherDisplay:10.37,2013-01-27 06:32:00,
2013-01-27 01:37:00,12.6,3.1,30.25,NW,320,0.4,3.5,65,0.00,CLR,,0.00,0.0,WeatherDisplay:10.37,2013-01-27 06:37:00,
2013-01-27 01:42:00,12.5,3.3,30.25,WNW,297,0.0,0.0,66,0.00,CLR,,0.00,0.0,WeatherDisplay:10.37,2013-01-27 06:42:00,
2013-01-27 01:47:00,12.5,3.3,30.25,NW,313,1.5,3.5,66,0.00,CLR,,0.00,0.0,WeatherDisplay:10.37,2013-01-27 06:47:00,
2013-01-27 01:52:00,12.4,3.2,30.25,NW,321,1.1,3.5,66,0.00,CLR,,0.00,0.0,WeatherDisplay:10.37,2013-01-27 06:52:00,
2013-01-27 01:57:00,12.3,3.1,30.25,SW,228,1.2,3.5,66,0.00,CLR,,0.00,0.0,WeatherDisplay:10.37,2013-01-27 06:57:00,
2013-01-27 02:02:00,12.3,3.4,30.25,West,279,1.9,4.6,67,0.00,CLR,,0.00,0.0,WeatherDisplay:10.37,2013-01-27 07:02:00,
2013-01-27 02:07:00,12.3,3.4,30.25,NW,311,2.8,10.4,67,0.00,CLR,,0.00,0.0,WeatherDisplay:10.37,2013-01-27 07:07:00,
2013-01-27 02:13:00,12.2,3.3,30.26,NE,37,0.6,9.2,67,0.00,CLR,,0.00,0.0,WeatherDisplay:10.37,2013-01-27 07:13:00,
2013-01-27 02:18:00,12.2,3.3,30.25,West,266,1.0,3.5,67,0.00,CLR,,0.00,0.0,WeatherDisplay:10.37,2013-01-27 07:18:00,
2013-01-27 02:23:00,12.1,3.6,30.26,West,275,2.6,4.6,68,0.00,CLR,,0.00,0.0,WeatherDisplay:10.37,2013-01-27 07:23:00,
2013-01-27 02:28:00,12.1,3.6,30.26,SSW,202,0.1,2.3,68,0.00,CLR,,0.00,0.0,WeatherDisplay:10.37,2013-01-27 07:28:00,
2013-01-27 02:33:00,12.1,3.6,30.26,NNW,338,2.3,5.8,68,0.00,CLR,,0.00,0.0,WeatherDisplay:10.37,2013-01-27 07:33:00,
2013-01-27 02:38:00,12.1,3.6,30.26,WNW,288,0.4,3.5,68,0.00,CLR,,0.00,0.0,WeatherDisplay:10.37,2013-01-27 07:38:00,
2013-01-27 02:43:00,12.1,3.6,30.26,WNW,285,0.9,3.5,68,0.00,CLR,,0.00,0.0,WeatherDisplay:10.37,2013-01-27 07:43:00,
2013-01-27 02:48:00,12.1,3.6,30.26,NNW,334,2.8,8.1,68,0.00,CLR,,0.00,0.0,WeatherDisplay:10.37,2013-01-27 07:48:00,
2013-01-27 02:53:00,12.1,3.6,30.25,WNW,298,3.2,9.2,68,0.00,CLR,,0.00,0.0,WeatherDisplay:10.37,2013-01-27 07:53:00,
2013-01-27 02:58:00,12.1,3.6,30.26,SSW,195,0.0,2.3,68,0.00,CLR,,0.00,0.0,WeatherDisplay:10.37,2013-01-27 07:58:00,
2013-01-27 03:03:00,12.2,3.6,30.26,North,355,0.1,1.1,68,0.00,CLR,,0.00,0.0,WeatherDisplay:10.37,2013-01-27 08:03:00,
2013-01-27 03:08:00,12.3,3.7,30.27,NNW,339,1.2,3.5,68,0.00,CLR,,0.00,0.0,WeatherDisplay:10.37,2013-01-27 08:08:00,
2013-01-27 03:13:00,12.3,3.7,30.27,NW,317,0.6,3.5,68,0.00,CLR,,0.00,0.0,WeatherDisplay:10.37,2013-01-27 08:13:00,
2013-01-27 03:18:00,12.3,3.7,30.27,NW,319,0.9,2.3,68,0.00,CLR,,0.00,0.0,WeatherDisplay:10.37,2013-01-27 08:18:00,
2013-01-27 03:23:00,12.4,3.8,30.27,West,277,1.7,3.5,68,0.00,CLR,,0.00,0.0,WeatherDisplay:10.37,2013-01-27 08:23:00,
2013-01-27 03:28:00,12.4,3.8,30.27,NW,319,0.0,0.0,68,0.00,CLR,,0.00,0.0,WeatherDisplay:10.37,2013-01-27 08:28:00,
2013-01-27 03:33:00,12.4,3.8,30.27,West,271,0.4,3.5,68,0.00,CLR,,0.00,0.0,WeatherDisplay:10.37,2013-01-27 08:33:00,
2013-01-27 03:38:00,12.4,3.8,30.27,WSW,258,0.5,2.3,68,0.00,CLR,,0.00,0.0,WeatherDisplay:10.37,2013-01-27 08:38:00,
2013-01-27 03:43:00,12.4,3.8,30.27,NNW,332,1.2,3.5,68,0.00,CLR,,0.00,0.0,WeatherDisplay:10.37,2013-01-27 08:43:00,
2013-01-27 03:48:00,12.4,3.8,30.27,West,273,0.8,3.5,68,0.00,CLR,,0.00,0.0,WeatherDisplay:10.37,2013-01-27 08:48:00,
2013-01-27 03:53:00,12.4,3.8,30.27,NW,319,1.7,6.9,68,0.00,CLR,,0.00,0.0,WeatherDisplay:10.37,2013-01-27 08:53:00,
2013-01-27 03:58:00,12.4,3.8,30.27,WNW,291,1.4,3.5,68,0.00,CLR,,0.00,0.0,WeatherDisplay:10.37,2013-01-27 08:58:00,
2013-01-27 04:03:00,12.4,4.2,30.27,WNW,286,0.0,0.0,69,0.00,CLR,,0.00,0.0,WeatherDisplay:10.37,2013-01-27 09:03:00,
2013-01-27 04:08:00,12.5,4.3,30.27,NW,307,0.7,2.3,69,0.00,CLR,,0.00,0.0,WeatherDisplay:10.37,2013-01-27 09:08:00,
2013-01-27 04:13:00,12.5,4.3,30.28,North,5,0.0,3.5,69,0.00,CLR,,0.00,0.0,WeatherDisplay:10.37,2013-01-27 09:13:00,
2013-01-27 04:18:00,12.5,4.3,30.28,West,281,0.7,2.3,69,0.00,CLR,,0.00,0.0,WeatherDisplay:10.37,2013-01-27 09:18:00,
2013-01-27 04:23:00,12.5,4.3,30.28,WNW,290,0.2,1.1,69,0.00,CLR,,0.00,0.0,WeatherDisplay:10.37,2013-01-27 09:23:00,
2013-01-27 04:28:00,12.6,4.3,30.28,NW,321,1.8,5.8,69,0.00,CLR,,0.00,0.0,WeatherDisplay:10.37,2013-01-27 09:28:00,
2013-01-27 04:33:00,12.5,4.3,30.28,WNW,282,0.5,3.5,69,0.00,CLR,,0.00,0.0,WeatherDisplay:10.37,2013-01-27 09:33:00,
2013-01-27 04:38:00,12.5,4.3,30.28,West,281,0.3,1.1,69,0.00,CLR,,0.00,0.0,WeatherDisplay:10.37,2013-01-27 09:38:00,
2013-01-27 04:43:00,12.4,4.2,30.28,NW,306,0.8,3.5,69,0.00,CLR,,0.00,0.0,WeatherDisplay:10.37,2013-01-27 09:43:00,
2013-01-27 04:48:00,12.4,4.2,30.28,WNW,296,0.9,3.5,69,0.00,CLR,,0.00,0.0,WeatherDisplay:10.37,2013-01-27 09:48:00,
2013-01-27 04:53:00,12.4,4.5,30.28,WSW,257,0.9,3.5,70,0.00,CLR,,0.00,0.0,WeatherDisplay:10.37,2013-01-27 09:53:00,
2013-01-27 04:58:00,12.3,4.4,30.28,WNW,294,1.7,3.5,70,0.00,CLR,,0.00,0.0,WeatherDisplay:10.37,2013-01-27 09:58:00,
2013-01-27 05:03:00,12.3,4.4,30.29,West,267,0.3,3.5,70,0.00,CLR,,0.00,0.0,WeatherDisplay:10.37,2013-01-27 10:03:00,
2013-01-27 05:08:00,12.2,4.3,30.29,WNW,296,0.0,1.1,70,0.00,CLR,,0.00,0.0,WeatherDisplay:10.37,2013-01-27 10:08:00,
2013-01-27 05:13:00,12.1,4.2,30.29,WNW,300,0.6,4.6,70,0.00,CLR,,0.00,0.0,WeatherDisplay:10.37,2013-01-27 10:13:00,
2013-01-27 05:18:00,12.1,4.2,30.29,WNW,302,0.0,1.1,70,0.00,CLR,,0.00,0.0,WeatherDisplay:10.37,2013-01-27 10:18:00,
2013-01-27 05:23:00,12.0,4.1,30.30,West,268,0.0,0.0,70,0.00,CLR,,0.00,0.0,WeatherDisplay:10.37,2013-01-27 10:23:00,
2013-01-27 05:28:00,11.9,4.0,30.30,NNW,341,0.0,0.0,70,0.00,CLR,,0.00,0.0,WeatherDisplay:10.37,2013-01-27 10:28:00,
2013-01-27 05:33:00,11.9,4.3,30.30,West,279,0.1,1.1,71,0.00,CLR,,0.00,0.0,WeatherDisplay:10.37,2013-01-27 10:33:00,
2013-01-27 05:38:00,11.8,4.2,30.30,WNW,286,0.0,3.5,71,0.00,CLR,,0.00,0.0,WeatherDisplay:10.37,2013-01-27 10:38:00,
2013-01-27 05:43:00,11.7,4.1,30.30,ENE,66,0.1,1.1,71,0.00,CLR,,0.00,0.0,WeatherDisplay:10.37,2013-01-27 10:43:00,
2013-01-27 05:48:00,11.6,4.0,30.30,NNW,344,0.0,0.0,71,0.00,CLR,,0.00,0.0,WeatherDisplay:10.37,2013-01-27 10:48:00,
2013-01-27 05:53:00,11.5,3.9,30.30,NNW,332,0.0,1.1,71,0.00,CLR,,0.00,0.0,WeatherDisplay:10.37,2013-01-27 10:53:00,
2013-01-27 05:58:00,11.4,3.8,30.30,WNW,283,0.0,0.0,71,0.00,CLR,,0.00,0.0,WeatherDisplay:10.37,2013-01-27 10:58:00,
2013-01-27 06:03:00,11.3,3.7,30.30,WNW,296,0.9,3.5,71,0.00,CLR,,0.00,0.0,WeatherDisplay:10.37,2013-01-27 11:03:00,
2013-01-27 06:08:00,11.2,3.9,30.31,NW,312,0.1,1.1,72,0.00,CLR,,0.00,0.0,WeatherDisplay:10.37,2013-01-27 11:08:00,
2013-01-27 06:13:00,11.2,3.9,30.31,NW,317,0.4,3.0,72,0.00,CLR,,0.00,0.0,WeatherDisplay:10.37,2013-01-27 11:13:00,
2013-01-27 06:18:00,11.3,4.0,30.31,WNW,288,0.5,3.5,72,0.00,CLR,,0.00,0.0,WeatherDisplay:10.37,2013-01-27 11:18:00,
2013-01-27 06:23:00,11.3,4.0,30.31,North,5,0.5,1.1,72,0.00,CLR,,0.00,0.0,WeatherDisplay:10.37,2013-01-27 11:23:00,
2013-01-27 06:28:00,11.4,4.1,30.31,NNW,329,0.0,1.1,72,0.00,CLR,,0.00,0.0,WeatherDisplay:10.37,2013-01-27 11:28:00,
2013-01-27 06:33:00,11.4,4.4,30.31,WNW,301,1.6,3.5,73,0.00,CLR,,0.00,0.0,WeatherDisplay:10.37,2013-01-27 11:33:00,
2013-01-27 06:38:00,11.4,4.4,30.31,SW,232,1.3,3.5,73,0.00,CLR,,0.00,0.0,WeatherDisplay:10.37,2013-01-27 11:38:00,
2013-01-27 06:43:00,11.4,4.4,30.32,WNW,297,4.0,9.2,73,0.00,CLR,,0.00,0.0,WeatherDisplay:10.37,2013-01-27 11:43:00,
2013-01-27 06:48:00,11.4,4.4,30.32,North,355,0.6,3.5,73,0.00,CLR,,0.00,0.0,WeatherDisplay:10.37,2013-01-27 11:48:00,
2013-01-27 06:53:00,11.3,4.3,30.32,WNW,298,0.3,2.3,73,0.00,CLR,,0.00,0.0,WeatherDisplay:10.37,2013-01-27 11:53:00,
2013-01-27 06:58:00,11.3,4.3,30.32,NW,308,0.0,0.0,73,0.00,CLR,,0.00,0.0,WeatherDisplay:10.37,2013-01-27 11:58:00,
2013-01-27 07:03:00,11.2,4.2,30.33,NW,326,0.4,3.5,73,0.00,OVC,,0.00,0.0,WeatherDisplay:10.37,2013-01-27 12:03:00,
2013-01-27 07:08:00,11.3,4.3,30.33,West,279,0.1,2.0,73,0.00,OVC,,0.00,5.0,WeatherDisplay:10.37,2013-01-27 12:08:00,
2013-01-27 07:13:00,11.2,4.2,30.33,SW,227,1.0,3.5,73,0.00,SCT,,0.00,7.0,WeatherDisplay:10.37,2013-01-27 12:13:00,
2013-01-27 07:18:00,11.2,4.2,30.33,WNW,297,1.2,3.5,73,0.00,BKN,,0.00,9.0,WeatherDisplay:10.37,2013-01-27 12:18:00,
2013-01-27 07:23:00,11.3,4.3,30.33,WNW,284,0.7,3.5,73,0.00,BKN,,0.00,11.0,WeatherDisplay:10.37,2013-01-27 12:23:00,
2013-01-27 07:28:00,11.3,4.6,30.33,WNW,290,0.3,1.1,74,0.00,BKN,,0.00,12.0,WeatherDisplay:10.37,2013-01-27 12:28:00,
2013-01-27 07:33:00,11.4,4.7,30.34,NW,321,1.6,3.5,74,0.00,BKN,,0.00,14.0,WeatherDisplay:10.37,2013-01-27 12:33:00,
2013-01-27 07:38:00,11.4,4.7,30.34,WSW,244,0.4,2.3,74,0.00,BKN,,0.00,16.0,WeatherDisplay:10.37,2013-01-27 12:38:00,
2013-01-27 07:43:00,11.5,4.8,30.34,NNW,348,0.1,3.5,74,0.00,BKN,,0.00,21.0,WeatherDisplay:10.37,2013-01-27 12:43:00,
2013-01-27 07:48:00,11.5,4.8,30.34,SW,222,1.2,3.5,74,0.00,BKN,,0.00,19.0,WeatherDisplay:10.37,2013-01-27 12:48:00,
2013-01-27 07:53:00,11.6,4.9,30.34,NW,304,0.9,6.9,74,0.00,BKN,,0.00,23.0,WeatherDisplay:10.37,2013-01-27 12:53:00,
2013-01-27 07:58:00,11.8,5.1,30.34,NNW,343,0.8,3.5,74,0.00,BKN,,0.00,23.0,WeatherDisplay:10.37,2013-01-27 12:58:00,
2013-01-27 08:03:00,11.9,4.9,30.34,WNW,290,1.1,3.5,73,0.00,BKN,,0.00,26.0,WeatherDisplay:10.37,2013-01-27 13:03:00,
2013-01-27 08:08:00,12.1,5.4,30.35,WSW,252,1.8,4.6,74,0.00,BKN,,0.00,33.0,WeatherDisplay:10.37,2013-01-27 13:08:00,
2013-01-27 08:13:00,12.4,5.4,30.35,WNW,292,0.9,2.3,73,0.00,BKN,,0.00,33.0,WeatherDisplay:10.37,2013-01-27 13:13:00,
2013-01-27 08:18:00,12.7,5.7,30.35,WNW,290,0.3,2.3,73,0.00,BKN,,0.00,53.0,WeatherDisplay:10.37,2013-01-27 13:18:00,
2013-01-27 08:23:00,13.0,6.0,30.35,NW,310,0.3,4.0,73,0.00,BKN,,0.00,53.0,WeatherDisplay:10.37,2013-01-27 13:23:00,
2013-01-27 08:28:00,13.3,6.0,30.35,West,273,0.3,2.3,72,0.00,BKN,,0.00,113.0,WeatherDisplay:10.37,2013-01-27 13:28:00,
2013-01-27 08:33:00,13.7,6.3,30.36,WNW,298,1.7,5.8,72,0.00,SCT,,0.00,88.0,WeatherDisplay:10.37,2013-01-27 13:33:00,
2013-01-27 08:38:00,14.1,6.4,30.36,West,260,1.1,3.5,71,0.00,BKN,,0.00,53.0,WeatherDisplay:10.37,2013-01-27 13:38:00,
2013-01-27 08:43:00,14.7,6.7,30.36,WNW,302,3.8,6.9,70,0.00,BKN,,0.00,100.0,WeatherDisplay:10.37,2013-01-27 13:43:00,
2013-01-27 08:48:00,15.4,7.0,30.36,WNW,290,1.6,6.9,69,0.00,BKN,,0.00,93.0,WeatherDisplay:10.37,2013-01-27 13:48:00,
2013-01-27 08:53:00,16.0,7.3,30.36,West,264,4.6,10.4,68,0.00,SCT,,0.00,141.0,WeatherDisplay:10.37,2013-01-27 13:53:00,
2013-01-27 08:58:00,16.4,7.3,30.36,West,278,1.7,4.6,67,0.00,SCT,,0.00,67.0,WeatherDisplay:10.37,2013-01-27 13:58:00,
2013-01-27 09:03:00,16.6,7.2,30.36,NNW,346,1.8,4.0,66,0.00,BKN,,0.00,40.0,WeatherDisplay:10.37,2013-01-27 14:03:00,
2013-01-27 09:08:00,16.8,7.1,30.37,NW,317,1.9,5.8,65,0.00,BKN,,0.00,63.0,WeatherDisplay:10.37,2013-01-27 14:08:00,
2013-01-27 09:13:00,17.1,7.3,30.37,NW,307,1.1,3.5,65,0.00,BKN,,0.00,69.0,WeatherDisplay:10.37,2013-01-27 14:13:00,
2013-01-27 09:18:00,17.5,7.4,30.38,NW,321,2.2,5.0,64,0.00,SCT,,0.00,167.0,WeatherDisplay:10.37,2013-01-27 14:18:00,
2013-01-27 09:23:00,17.9,7.4,30.38,WNW,288,1.9,4.6,63,0.00,SCT,,0.00,174.0,WeatherDisplay:10.37,2013-01-27 14:23:00,
2013-01-27 09:28:00,18.4,7.5,30.38,NW,315,1.2,5.8,62,0.00,BKN,,0.00,162.0,WeatherDisplay:10.37,2013-01-27 14:28:00,
2013-01-27 09:33:00,18.9,7.3,30.38,NNW,341,2.3,7.0,60,0.00,FEW,,0.00,272.0,WeatherDisplay:10.37,2013-01-27 14:33:00,
2013-01-27 09:38:00,19.3,7.3,30.38,NNW,327,2.0,8.1,59,0.00,SCT,,0.00,227.0,WeatherDisplay:10.37,2013-01-27 14:38:00,
2013-01-27 09:43:00,19.7,7.7,30.38,NNW,329,4.6,9.2,59,0.00,SCT,,0.00,221.0,WeatherDisplay:10.37,2013-01-27 14:43:00,
2013-01-27 09:48:00,20.0,7.2,30.38,West,280,3.6,5.8,57,0.00,SCT,,0.00,258.0,WeatherDisplay:10.37,2013-01-27 14:48:00,
2013-01-27 09:53:00,20.4,7.6,30.38,WNW,297,0.7,2.3,57,0.00,SCT,,0.00,169.0,WeatherDisplay:10.37,2013-01-27 14:53:00,
2013-01-27 09:58:00,21.1,7.8,30.38,West,279,3.7,8.0,56,0.00,FEW,,0.00,330.0,WeatherDisplay:10.37,2013-01-27 14:58:00,
2013-01-27 10:03:00,21.6,7.5,30.38,NW,320,4.0,9.2,54,0.00,CLR,,0.00,369.0,WeatherDisplay:10.37,2013-01-27 15:03:00,
2013-01-27 10:08:00,22.1,8.4,30.38,NW,312,3.1,5.8,55,0.00,CLR,,0.00,401.0,WeatherDisplay:10.37,2013-01-27 15:08:00,
2013-01-27 10:13:00,22.6,7.2,30.38,North,351,2.8,8.1,51,0.00,CLR,,0.00,408.0,WeatherDisplay:10.37,2013-01-27 15:13:00,
2013-01-27 10:18:00,23.2,7.7,30.38,NNW,335,4.8,8.1,51,0.00,CLR,,0.00,417.0,WeatherDisplay:10.37,2013-01-27 15:18:00,
2013-01-27 10:23:00,23.2,6.8,30.38,NNW,346,5.0,11.5,49,0.00,CLR,,0.00,425.0,WeatherDisplay:10.37,2013-01-27 15:23:00,
2013-01-27 10:28:00,24.0,7.6,30.38,NNW,338,4.2,6.9,49,0.00,CLR,,0.00,434.0,WeatherDisplay:10.37,2013-01-27 15:28:00,
2013-01-27 10:33:00,24.6,8.1,30.38,North,360,5.4,8.1,49,0.00,CLR,,0.00,441.0,WeatherDisplay:10.37,2013-01-27 15:33:00,
2013-01-27 10:38:00,24.2,6.8,30.38,WNW,284,4.2,8.1,47,0.00,CLR,,0.00,446.0,WeatherDisplay:10.37,2013-01-27 15:38:00,
2013-01-27 10:43:00,24.2,6.8,30.39,WNW,295,3.1,11.5,47,0.00,CLR,,0.00,455.0,WeatherDisplay:10.37,2013-01-27 15:43:00,
2013-01-27 10:48:00,25.0,8.0,30.38,NW,321,5.3,10.4,48,0.00,CLR,,0.00,459.0,WeatherDisplay:10.37,2013-01-27 15:48:00,
2013-01-27 10:53:00,24.9,7.5,30.38,NW,306,2.9,5.8,47,0.00,CLR,,0.00,466.0,WeatherDisplay:10.37,2013-01-27 15:53:00,
2013-01-27 10:58:00,25.0,7.1,30.38,West,276,4.6,12.7,46,0.00,CLR,,0.00,471.0,WeatherDisplay:10.37,2013-01-27 15:58:00,
2013-01-27 11:03:00,25.0,7.1,30.39,NW,321,5.1,9.2,46,0.00,CLR,,0.00,380.0,WeatherDisplay:10.37,2013-01-27 16:03:00,
2013-01-27 11:08:00,25.3,7.9,30.39,WSW,257,2.8,6.9,47,0.00,CLR,,0.00,420.0,WeatherDisplay:10.37,2013-01-27 16:08:00,
2013-01-27 11:13:00,26.0,8.0,30.39,WNW,296,5.3,8.1,46,0.00,CLR,,0.00,446.0,WeatherDisplay:10.37,2013-01-27 16:13:00,
2013-01-27 11:18:00,26.4,8.4,30.39,North,355,2.9,5.8,46,0.00,FEW,,0.00,336.0,WeatherDisplay:10.37,2013-01-27 16:18:00,
2013-01-27 11:23:00,27.1,9.5,30.39,WNW,290,3.2,5.8,47,0.00,CLR,,0.00,466.0,WeatherDisplay:10.37,2013-01-27 16:23:00,
2013-01-27 11:28:00,27.0,8.5,30.38,WNW,287,1.6,5.0,45,0.00,CLR,,0.00,446.0,WeatherDisplay:10.37,2013-01-27 16:28:00,
2013-01-27 11:33:00,27.3,8.2,30.38,NNW,333,4.2,8.1,44,0.00,CLR,,0.00,475.0,WeatherDisplay:10.37,2013-01-27 16:33:00,
2013-01-27 11:38:00,27.3,7.7,30.38,West,271,3.1,6.9,43,0.00,CLR,,0.00,501.0,WeatherDisplay:10.37,2013-01-27 16:38:00,
2013-01-27 11:43:00,27.5,8.4,30.38,NNW,348,3.0,5.0,44,0.00,CLR,,0.00,503.0,WeatherDisplay:10.37,2013-01-27 16:43:00,
2013-01-27 11:48:00,28.1,9.5,30.38,NW,323,0.7,2.3,45,0.00,CLR,,0.00,504.0,WeatherDisplay:10.37,2013-01-27 16:48:00,
2013-01-27 11:53:00,28.6,8.4,30.38,WSW,258,0.5,2.3,42,0.00,CLR,,0.00,508.0,WeatherDisplay:10.37,2013-01-27 16:53:00,
2013-01-27 11:58:00,28.4,7.7,30.38,NNW,327,3.7,8.1,41,0.00,CLR,,0.00,506.0,WeatherDisplay:10.37,2013-01-27 16:58:00,
2013-01-27 12:03:00,27.8,6.6,30.37,West,267,5.0,8.1,40,0.00,CLR,,0.00,506.0,WeatherDisplay:10.37,2013-01-27 17:03:00,
2013-01-27 12:08:00,27.6,7.5,30.38,NW,316,2.9,4.6,42,0.00,CLR,,0.00,508.0,WeatherDisplay:10.37,2013-01-27 17:08:00,
2013-01-27 12:13:00,28.8,9.1,30.37,WSW,257,3.0,8.1,43,0.00,CLR,,0.00,506.0,WeatherDisplay:10.37,2013-01-27 17:13:00,
2013-01-27 12:18:00,28.7,9.0,30.37,WNW,283,1.6,3.5,43,0.00,CLR,,0.00,504.0,WeatherDisplay:10.37,2013-01-27 17:18:00,
2013-01-27 12:23:00,29.3,9.0,30.37,NE,36,2.1,4.6,42,0.00,CLR,,0.00,503.0,WeatherDisplay:10.37,2013-01-27 17:23:00,
2013-01-27 12:28:00,29.4,8.6,30.37,West,273,3.6,5.8,41,0.00,CLR,,0.00,503.0,WeatherDisplay:10.37,2013-01-27 17:28:00,
2013-01-27 12:33:00,28.8,7.5,30.37,SW,236,3.9,9.2,40,0.00,CLR,,0.00,501.0,WeatherDisplay:10.37,2013-01-27 17:33:00,
2013-01-27 12:38:00,28.8,7.5,30.37,WNW,295,4.1,8.1,40,0.00,CLR,,0.00,497.0,WeatherDisplay:10.37,2013-01-27 17:38:00,
2013-01-27 12:43:00,28.7,7.4,30.37,WNW,282,5.7,11.5,40,0.00,CLR,,0.00,496.0,WeatherDisplay:10.37,2013-01-27 17:43:00,
2013-01-27 12:48:00,28.7,7.4,30.36,NW,315,4.4,8.1,40,0.00,CLR,,0.00,494.0,WeatherDisplay:10.37,2013-01-27 17:48:00,
2013-01-27 12:53:00,28.6,7.3,30.36,NW,310,3.2,11.5,40,0.00,CLR,,0.00,489.0,WeatherDisplay:10.37,2013-01-27 17:53:00,
2013-01-27 12:58:00,28.9,8.1,30.36,WNW,293,3.5,6.9,41,0.00,CLR,,0.00,485.0,WeatherDisplay:10.37,2013-01-27 17:58:00,
2013-01-27 13:03:00,29.0,7.1,30.36,WNW,290,3.1,5.0,39,0.00,CLR,,0.00,480.0,WeatherDisplay:10.37,2013-01-27 18:03:00,
2013-01-27 13:08:00,29.2,7.8,30.36,WNW,286,2.5,4.0,40,0.00,CLR,,0.00,476.0,WeatherDisplay:10.37,2013-01-27 18:08:00,
2013-01-27 13:13:00,29.8,7.8,30.36,WNW,300,6.3,9.2,39,0.00,CLR,,0.00,471.0,WeatherDisplay:10.37,2013-01-27 18:13:00,
2013-01-27 13:18:00,29.5,7.5,30.35,North,5,2.0,6.0,39,0.00,CLR,,0.00,466.0,WeatherDisplay:10.37,2013-01-27 18:18:00,
2013-01-27 13:23:00,29.4,7.5,30.35,NW,309,0.0,1.1,39,0.00,CLR,,0.00,352.0,WeatherDisplay:10.37,2013-01-27 18:23:00,
2013-01-27 13:28:00,29.9,9.0,30.35,NW,324,1.3,3.5,41,0.00,SCT,,0.00,232.0,WeatherDisplay:10.37,2013-01-27 18:28:00,
2013-01-27 13:33:00,29.8,8.4,30.35,NNW,344,3.4,5.8,40,0.00,SCT,,0.00,229.0,WeatherDisplay:10.37,2013-01-27 18:33:00,
2013-01-27 13:38:00,29.9,9.0,30.35,West,270,2.3,8.0,41,0.00,FEW,,0.00,404.0,WeatherDisplay:10.37,2013-01-27 18:38:00,
2013-01-27 13:43:00,29.7,7.7,30.35,SW,232,3.1,5.0,39,0.00,CLR,,0.00,332.0,WeatherDisplay:10.37,2013-01-27 18:43:00,
2013-01-27 13:48:00,29.6,7.6,30.36,WNW,300,2.0,4.0,39,0.00,FEW,,0.00,258.0,WeatherDisplay:10.37,2013-01-27 18:48:00,
2013-01-27 13:53:00,29.6,7.6,30.35,South,176,2.1,4.6,39,0.00,SCT,,0.00,262.0,WeatherDisplay:10.37,2013-01-27 18:53:00,
2013-01-27 13:58:00,29.6,8.7,30.35,WSW,257,4.1,6.9,41,0.00,SCT,,0.00,190.0,WeatherDisplay:10.37,2013-01-27 18:58:00,
2013-01-27 14:03:00,29.6,6.5,30.36,NNW,336,2.3,6.9,37,0.00,SCT,,0.00,200.0,WeatherDisplay:10.37,2013-01-27 19:03:00,
2013-01-27 14:08:00,29.7,7.2,30.36,North,351,3.0,5.8,38,0.00,SCT,,0.00,260.0,WeatherDisplay:10.37,2013-01-27 19:08:00,
2013-01-27 14:13:00,29.7,6.6,30.36,West,277,3.2,4.6,37,0.00,FEW,,0.00,294.0,WeatherDisplay:10.37,2013-01-27 19:13:00,
2013-01-27 14:18:00,29.8,7.2,30.35,West,271,4.5,11.5,38,0.00,FEW,,0.00,181.0,WeatherDisplay:10.37,2013-01-27 19:18:00,
2013-01-27 14:23:00,29.9,7.9,30.36,NW,326,3.6,8.1,39,0.00,FEW,,0.00,290.0,WeatherDisplay:10.37,2013-01-27 19:23:00,
2013-01-27 14:28:00,30.1,7.5,30.36,WNW,289,2.8,4.6,38,0.00,FEW,,0.00,301.0,WeatherDisplay:10.37,2013-01-27 19:28:00,
2013-01-27 14:33:00,30.2,8.2,30.36,WNW,289,2.9,6.9,39,0.00,CLR,,0.00,318.0,WeatherDisplay:10.37,2013-01-27 19:33:00,
2013-01-27 14:38:00,30.3,7.7,30.35,NW,311,3.6,6.0,38,0.00,CLR,,0.00,262.0,WeatherDisplay:10.37,2013-01-27 19:38:00,
2013-01-27 14:43:00,30.3,8.3,30.35,NW,304,1.0,5.0,39,0.00,CLR,,0.00,223.0,WeatherDisplay:10.37,2013-01-27 19:43:00,
2013-01-27 14:48:00,30.0,7.4,30.36,WNW,294,1.4,3.5,38,0.00,FEW,,0.00,209.0,WeatherDisplay:10.37,2013-01-27 19:48:00,
2013-01-27 14:53:00,29.9,6.7,30.35,West,259,3.4,11.5,37,0.00,SCT,,0.00,148.0,WeatherDisplay:10.37,2013-01-27 19:53:00,
2013-01-27 14:58:00,29.9,6.7,30.35,West,277,2.9,6.9,37,0.00,SCT,,0.00,160.0,WeatherDisplay:10.37,2013-01-27 19:58:00,
2013-01-27 15:03:00,29.6,5.9,30.35,West,275,2.4,6.9,36,0.00,SCT,,0.00,98.0,WeatherDisplay:10.37,2013-01-27 20:03:00,
2013-01-27 15:08:00,29.3,6.8,30.35,NW,314,0.1,3.5,38,0.00,BKN,,0.00,120.0,WeatherDisplay:10.37,2013-01-27 20:08:00,
2013-01-27 15:13:00,29.2,6.1,30.35,WNW,283,6.4,11.5,37,0.00,BKN,,0.00,51.0,WeatherDisplay:10.37,2013-01-27 20:13:00,
2013-01-27 15:18:00,29.3,6.2,30.35,NW,321,2.9,6.9,37,0.00,BKN,,0.00,33.0,WeatherDisplay:10.37,2013-01-27 20:18:00,
2013-01-27 15:23:00,29.4,6.9,30.35,West,273,4.9,11.5,38,0.00,BKN,,0.00,56.0,WeatherDisplay:10.37,2013-01-27 20:23:00,
2013-01-27 15:28:00,29.3,7.4,30.35,NW,315,1.7,4.0,39,0.00,BKN,,0.00,42.0,WeatherDisplay:10.37,2013-01-27 20:28:00,
2013-01-27 15:33:00,29.3,6.8,30.35,WSW,258,1.3,6.0,38,0.00,BKN,,0.00,26.0,WeatherDisplay:10.37,2013-01-27 20:33:00,
2013-01-27 15:38:00,29.2,6.1,30.35,NW,319,1.6,4.6,37,0.00,BKN,,0.00,26.0,WeatherDisplay:10.37,2013-01-27 20:38:00,
2013-01-27 15:43:00,29.2,6.7,30.35,WSW,248,1.8,3.5,38,0.00,BKN,,0.00,23.0,WeatherDisplay:10.37,2013-01-27 20:43:00,
2013-01-27 15:48:00,29.0,5.9,30.35,West,280,3.7,6.9,37,0.00,BKN,,0.00,23.0,WeatherDisplay:10.37,2013-01-27 20:48:00,
2013-01-27 15:53:00,29.0,6.5,30.35,West,273,0.0,0.0,38,0.00,BKN,,0.00,21.0,WeatherDisplay:10.37,2013-01-27 20:53:00,
2013-01-27 15:58:00,28.9,6.4,30.35,NW,315,1.1,3.5,38,0.00,BKN,,0.00,21.0,WeatherDisplay:10.37,2013-01-27 20:58:00,
2013-01-27 16:03:00,28.8,6.9,30.36,NW,309,0.2,2.3,39,0.00,BKN,,0.00,21.0,WeatherDisplay:10.37,2013-01-27 21:03:00,
2013-01-27 16:08:00,28.6,7.3,30.36,West,277,0.1,1.1,40,0.00,BKN,,0.00,18.0,WeatherDisplay:10.37,2013-01-27 21:08:00,
2013-01-27 16:13:00,28.5,7.2,30.36,NW,319,1.3,8.0,40,0.00,BKN,,0.00,19.0,WeatherDisplay:10.37,2013-01-27 21:13:00,
2013-01-27 16:18:00,28.4,6.0,30.36,WNW,295,2.7,11.5,38,0.00,BKN,,0.00,16.0,WeatherDisplay:10.37,2013-01-27 21:18:00,
2013-01-27 16:23:00,28.2,6.4,30.36,NW,322,0.0,0.0,39,0.00,BKN,,0.00,14.0,WeatherDisplay:10.37,2013-01-27 21:23:00,
2013-01-27 16:28:00,28.1,6.8,30.36,WNW,294,1.3,3.5,40,0.00,BKN,,0.00,11.0,WeatherDisplay:10.37,2013-01-27 21:28:00,
2013-01-27 16:33:00,28.0,7.3,30.37,NW,318,0.1,2.0,41,0.00,BKN,,0.00,9.0,WeatherDisplay:10.37,2013-01-27 21:33:00,
2013-01-27 16:38:00,27.8,6.6,30.38,NNW,333,1.9,5.0,40,0.00,BKN,,0.00,9.0,WeatherDisplay:10.37,2013-01-27 21:38:00,
2013-01-27 16:43:00,27.7,6.5,30.38,WSW,256,1.6,3.5,40,0.00,BKN,,0.00,5.0,WeatherDisplay:10.37,2013-01-27 21:43:00,
2013-01-27 16:48:00,27.6,6.9,30.38,NNW,335,3.1,4.6,41,0.00,OVC,,0.00,0.0,WeatherDisplay:10.37,2013-01-27 21:48:00,
2013-01-27 16:53:00,27.4,5.7,30.38,NW,313,1.0,2.3,39,0.00,OVC,,0.00,0.0,WeatherDisplay:10.37,2013-01-27 21:53:00,
2013-01-27 16:58:00,27.2,6.6,30.38,NNW,345,1.0,3.5,41,0.00,OVC,,0.00,0.0,WeatherDisplay:10.37,2013-01-27 21:58:00,
2013-01-27 17:03:00,27.0,6.4,30.38,NW,304,0.7,2.3,41,0.00,CLR,,0.00,0.0,WeatherDisplay:10.37,2013-01-27 22:03:00,
2013-01-27 17:08:00,26.9,6.8,30.38,NW,304,0.1,1.1,42,0.00,CLR,,0.00,0.0,WeatherDisplay:10.37,2013-01-27 22:08:00,
2013-01-27 17:13:00,26.7,6.6,30.39,North,5,0.4,2.3,42,0.00,CLR,,0.00,0.0,WeatherDisplay:10.37,2013-01-27 22:13:00,
2013-01-27 17:18:00,26.4,6.9,30.39,West,274,0.0,0.0,43,0.00,CLR,,0.00,0.0,WeatherDisplay:10.37,2013-01-27 22:18:00,
2013-01-27 17:23:00,26.1,6.1,30.39,WNW,292,0.0,1.1,42,0.00,CLR,,0.00,0.0,WeatherDisplay:10.37,2013-01-27 22:23:00,
2013-01-27 17:28:00,25.9,6.4,30.40,West,280,0.4,1.0,43,0.00,CLR,,0.00,0.0,WeatherDisplay:10.37,2013-01-27 22:28:00,
2013-01-27 17:33:00,25.6,6.2,30.40,West,265,1.2,3.5,43,0.00,CLR,,0.00,0.0,WeatherDisplay:10.37,2013-01-27 22:33:00,
2013-01-27 17:38:00,25.4,6.5,30.40,West,265,0.0,0.0,44,0.00,CLR,,0.00,0.0,WeatherDisplay:10.37,2013-01-27 22:38:00,
2013-01-27 17:43:00,25.2,6.8,30.40,WNW,290,0.4,1.0,45,0.00,CLR,,0.00,0.0,WeatherDisplay:10.37,2013-01-27 22:43:00,
2013-01-27 17:48:00,25.0,6.6,30.40,West,274,0.5,1.1,45,0.00,CLR,,0.00,0.0,WeatherDisplay:10.37,2013-01-27 22:48:00,
2013-01-27 17:53:00,24.8,6.4,30.41,NNW,327,0.4,3.5,45,0.00,CLR,,0.00,0.0,WeatherDisplay:10.37,2013-01-27 22:53:00,
2013-01-27 17:58:00,24.6,6.3,30.41,NNW,344,0.3,1.1,45,0.00,CLR,,0.00,0.0,WeatherDisplay:10.37,2013-01-27 22:58:00,
2013-01-27 18:03:00,24.5,6.2,30.41,West,270,0.2,2.0,45,0.00,CLR,,0.00,0.0,WeatherDisplay:10.37,2013-01-27 23:03:00,
2013-01-27 18:08:00,24.3,6.5,30.42,WNW,284,0.8,3.5,46,0.00,CLR,,0.00,0.0,WeatherDisplay:10.37,2013-01-27 23:08:00,
2013-01-27 18:13:00,24.2,5.9,30.41,NW,309,0.0,1.1,45,0.00,CLR,,0.00,0.0,WeatherDisplay:10.37,2013-01-27 23:13:00,
2013-01-27 18:18:00,24.1,6.7,30.41,WNW,292,1.0,3.5,47,0.00,CLR,,0.00,0.0,WeatherDisplay:10.37,2013-01-27 23:18:00,
2013-01-27 18:23:00,24.0,6.7,30.41,NW,311,1.3,4.6,47,0.00,CLR,,0.00,0.0,WeatherDisplay:10.37,2013-01-27 23:23:00,
2013-01-27 18:28:00,23.8,6.5,30.41,West,262,0.1,1.1,47,0.00,CLR,,0.00,0.0,WeatherDisplay:10.37,2013-01-27 23:28:00,
2013-01-27 18:33:00,23.7,6.8,30.41,WNW,298,0.2,0.0,48,0.00,CLR,,0.00,0.0,WeatherDisplay:10.37,2013-01-27 23:33:00,
2013-01-27 18:38:00,23.6,7.2,30.41,WNW,302,0.1,1.0,49,0.00,CLR,,0.00,0.0,WeatherDisplay:10.37,2013-01-27 23:38:00,
2013-01-27 18:43:00,23.5,7.1,30.41,NW,306,0.5,2.3,49,0.00,CLR,,0.00,0.0,WeatherDisplay:10.37,2013-01-27 23:43:00,
2013-01-27 18:48:00,23.4,7.0,30.41,West,275,0.0,2.3,49,0.00,CLR,,0.00,0.0,WeatherDisplay:10.37,2013-01-27 23:48:00,
2013-01-27 18:53:00,23.2,6.8,30.41,West,277,0.3,1.1,49,0.00,CLR,,0.00,0.0,WeatherDisplay:10.37,2013-01-27 23:53:00,
2013-01-27 18:58:00,23.1,6.7,30.41,West,267,0.8,3.0,49,0.00,CLR,,0.00,0.0,WeatherDisplay:10.37,2013-01-27 23:58:00,
2013-01-27 19:03:00,23.1,7.2,30.42,WNW,286,1.4,4.6,50,0.00,CLR,,0.00,0.0,WeatherDisplay:10.37,2013-01-28 00:03:00,
2013-01-27 19:08:00,22.9,7.4,30.42,West,267,0.2,3.5,51,0.00,CLR,,0.00,0.0,WeatherDisplay:10.37,2013-01-28 00:08:00,
2013-01-27 19:13:00,22.8,7.4,30.42,WNW,294,1.0,3.5,51,0.00,CLR,,0.00,0.0,WeatherDisplay:10.37,2013-01-28 00:13:00,
2013-01-27 19:18:00,22.7,7.3,30.42,WNW,290,0.2,1.1,51,0.00,CLR,,0.00,0.0,WeatherDisplay:10.37,2013-01-28 00:18:00,
2013-01-27 19:23:00,22.6,7.6,30.43,NW,315,0.4,2.3,52,0.00,CLR,,0.00,0.0,WeatherDisplay:10.37,2013-01-28 00:23:00,
2013-01-27 19:28:00,22.5,7.5,30.42,NW,315,0.3,2.3,52,0.00,CLR,,0.00,0.0,WeatherDisplay:10.37,2013-01-28 00:28:00,
2013-01-27 19:33:00,22.3,7.7,30.43,NW,313,0.5,2.3,53,0.00,CLR,,0.00,0.0,WeatherDisplay:10.37,2013-01-28 00:33:00,
2013-01-27 19:38:00,22.2,7.6,30.43,WNW,300,0.0,0.0,53,0.00,CLR,,0.00,0.0,WeatherDisplay:10.37,2013-01-28 00:38:00,
2013-01-27 19:43:00,22.1,7.6,30.43,NNW,342,0.2,1.1,53,0.00,CLR,,0.00,0.0,WeatherDisplay:10.37,2013-01-28 00:43:00,
2013-01-27 19:48:00,21.9,7.4,30.43,WNW,288,0.1,0.0,53,0.00,CLR,,0.00,0.0,WeatherDisplay:10.37,2013-01-28 00:48:00,
2013-01-27 19:53:00,21.8,7.3,30.43,WNW,294,0.0,1.1,53,0.00,CLR,,0.00,0.0,WeatherDisplay:10.37,2013-01-28 00:53:00,
2013-01-27 19:58:00,21.7,7.6,30.43,WNW,294,0.0,0.0,54,0.00,CLR,,0.00,0.0,WeatherDisplay:10.37,2013-01-28 00:58:00,
2013-01-27 20:03:00,21.6,7.5,30.43,WNW,295,0.5,2.3,54,0.00,CLR,,0.00,0.0,WeatherDisplay:10.37,2013-01-28 01:03:00,
2013-01-27 20:08:00,21.4,7.3,30.42,WNW,294,0.0,1.1,54,0.00,CLR,,0.00,0.0,WeatherDisplay:10.37,2013-01-28 01:08:00,
2013-01-27 20:13:00,21.3,7.2,30.42,West,269,0.6,2.0,54,0.00,CLR,,0.00,0.0,WeatherDisplay:10.37,2013-01-28 01:13:00,
2013-01-27 20:18:00,21.2,7.5,30.42,West,277,0.0,0.0,55,0.00,CLR,,0.00,0.0,WeatherDisplay:10.37,2013-01-28 01:18:00,
2013-01-27 20:23:00,21.1,7.8,30.43,West,278,0.0,0.0,56,0.00,CLR,,0.00,0.0,WeatherDisplay:10.37,2013-01-28 01:23:00,
2013-01-27 20:28:00,20.9,7.6,30.43,WSW,252,0.0,0.0,56,0.00,CLR,,0.00,0.0,WeatherDisplay:10.37,2013-01-28 01:28:00,
2013-01-27 20:33:00,20.7,7.5,30.43,NNW,336,0.0,0.0,56,0.00,CLR,,0.00,0.0,WeatherDisplay:10.37,2013-01-28 01:33:00,
2013-01-27 20:38:00,20.6,7.4,30.43,NNW,333,0.0,0.0,56,0.00,CLR,,0.00,0.0,WeatherDisplay:10.37,2013-01-28 01:38:00,
2013-01-27 20:43:00,20.4,7.2,30.42,NNW,333,0.0,0.0,56,0.00,CLR,,0.00,0.0,WeatherDisplay:10.37,2013-01-28 01:43:00,
2013-01-27 20:48:00,20.3,7.1,30.42,NNW,333,0.0,0.0,56,0.00,CLR,,0.00,0.0,WeatherDisplay:10.37,2013-01-28 01:48:00,
2013-01-27 20:53:00,20.2,7.4,30.42,NNW,333,0.0,1.1,57,0.00,CLR,,0.00,0.0,WeatherDisplay:10.37,2013-01-28 01:53:00,
2013-01-27 20:58:00,20.0,7.2,30.41,West,266,0.0,1.1,57,0.00,CLR,,0.00,0.0,WeatherDisplay:10.37,2013-01-28 01:58:00,
2013-01-27 21:03:00,19.9,7.5,30.42,West,266,0.0,0.0,58,0.00,CLR,,0.00,0.0,WeatherDisplay:10.37,2013-01-28 02:03:00,
2013-01-27 21:08:00,19.8,7.8,30.42,West,279,0.1,1.1,59,0.00,CLR,,0.00,0.0,WeatherDisplay:10.37,2013-01-28 02:08:00,
2013-01-27 21:13:00,19.7,7.3,30.43,West,279,0.0,0.0,58,0.00,CLR,,0.00,0.0,WeatherDisplay:10.37,2013-01-28 02:13:00,
2013-01-27 21:18:00,19.6,7.2,30.44,West,279,0.0,0.0,58,0.00,CLR,,0.00,0.0,WeatherDisplay:10.37,2013-01-28 02:18:00,
2013-01-27 21:23:00,19.4,7.4,30.43,West,279,0.0,0.0,59,0.00,CLR,,0.00,0.0,WeatherDisplay:10.37,2013-01-28 02:23:00,
2013-01-27 21:28:00,19.3,7.7,30.44,West,279,0.0,1.1,60,0.00,CLR,,0.00,0.0,WeatherDisplay:10.37,2013-01-28 02:28:00,
2013-01-27 21:33:00,19.1,7.5,30.44,West,279,0.0,0.0,60,0.00,CLR,,0.00,0.0,WeatherDisplay:10.37,2013-01-28 02:33:00,
2013-01-27 21:38:00,19.0,7.4,30.44,West,279,0.0,0.0,60,0.00,CLR,,0.00,0.0,WeatherDisplay:10.37,2013-01-28 02:38:00,
2013-01-27 21:43:00,18.9,6.9,30.44,West,279,0.0,0.0,59,0.00,CLR,,0.00,0.0,WeatherDisplay:10.37,2013-01-28 02:43:00,
2013-01-27 21:48:00,18.8,6.8,30.44,West,279,0.0,0.0,59,0.00,CLR,,0.00,0.0,WeatherDisplay:10.37,2013-01-28 02:48:00,
2013-01-27 21:53:00,18.7,7.1,30.43,West,267,0.0,0.0,60,0.00,CLR,,0.00,0.0,WeatherDisplay:10.37,2013-01-28 02:53:00,
2013-01-27 21:58:00,18.6,7.0,30.43,West,267,0.0,1.1,60,0.00,CLR,,0.00,0.0,WeatherDisplay:10.37,2013-01-28 02:58:00,
2013-01-27 22:03:00,18.6,7.0,30.43,West,268,0.1,0.0,60,0.00,CLR,,0.00,0.0,WeatherDisplay:10.37,2013-01-28 03:03:00,
2013-01-27 22:08:00,18.5,7.3,30.42,West,268,0.0,0.0,61,0.00,CLR,,0.00,0.0,WeatherDisplay:10.37,2013-01-28 03:08:00,
2013-01-27 22:13:00,18.3,7.4,30.43,West,268,0.0,0.0,62,0.00,CLR,,0.00,0.0,WeatherDisplay:10.37,2013-01-28 03:13:00,
2013-01-27 22:18:00,18.2,7.3,30.43,WSW,255,0.0,0.0,62,0.00,CLR,,0.00,0.0,WeatherDisplay:10.37,2013-01-28 03:18:00,
2013-01-27 22:23:00,18.1,6.9,30.43,WSW,256,0.3,2.3,61,0.00,CLR,,0.00,0.0,WeatherDisplay:10.37,2013-01-28 03:23:00,
2013-01-27 22:28:00,17.9,6.7,30.43,WSW,256,0.0,0.0,61,0.00,CLR,,0.00,0.0,WeatherDisplay:10.37,2013-01-28 03:28:00,
2013-01-27 22:33:00,17.8,6.6,30.43,WNW,297,0.0,0.0,61,0.00,CLR,,0.00,0.0,WeatherDisplay:10.37,2013-01-28 03:33:00,
2013-01-27 22:38:00,17.7,6.9,30.43,WSW,258,0.4,0.0,62,0.00,CLR,,0.00,0.0,WeatherDisplay:10.37,2013-01-28 03:38:00,
2013-01-27 22:43:00,17.6,6.8,30.43,WSW,258,0.0,0.0,62,0.00,CLR,,0.00,0.0,WeatherDisplay:10.37,2013-01-28 03:43:00,
2013-01-27 22:48:00,17.5,6.7,30.43,WSW,254,0.0,0.0,62,0.00,CLR,,0.00,0.0,WeatherDisplay:10.37,2013-01-28 03:48:00,
2013-01-27 22:53:00,17.5,6.3,30.43,WSW,251,0.0,0.0,61,0.00,CLR,,0.00,0.0,WeatherDisplay:10.37,2013-01-28 03:53:00,
2013-01-27 22:58:00,17.6,6.4,30.43,WSW,251,0.0,0.0,61,0.00,CLR,,0.00,0.0,WeatherDisplay:10.37,2013-01-28 03:58:00,
2013-01-27 23:03:00,17.7,6.5,30.43,WSW,248,0.0,0.0,61,0.00,CLR,,0.00,0.0,WeatherDisplay:10.37,2013-01-28 04:03:00,
2013-01-27 23:08:00,17.8,6.6,30.44,WSW,248,0.0,0.0,61,0.00,CLR,,0.00,0.0,WeatherDisplay:10.37,2013-01-28 04:08:00,
2013-01-27 23:13:00,18.0,6.4,30.44,SW,219,0.2,3.5,60,0.00,CLR,,0.00,0.0,WeatherDisplay:10.37,2013-01-28 04:13:00,
2013-01-27 23:18:00,18.1,6.2,30.45,WSW,251,0.0,1.1,59,0.00,CLR,,0.00,0.0,WeatherDisplay:10.37,2013-01-28 04:18:00,
2013-01-27 23:23:00,18.3,6.7,30.44,WSW,252,0.0,0.0,60,0.00,CLR,,0.00,0.0,WeatherDisplay:10.37,2013-01-28 04:23:00,
2013-01-27 23:28:00,18.4,6.8,30.44,WSW,252,0.0,0.0,60,0.00,CLR,,0.00,0.0,WeatherDisplay:10.37,2013-01-28 04:28:00,
2013-01-27 23:33:00,18.5,6.5,30.44,WSW,252,0.0,0.0,59,0.00,CLR,,0.00,0.0,WeatherDisplay:10.37,2013-01-28 04:33:00,
2013-01-27 23:38:00,18.6,7.0,30.43,WSW,252,0.0,0.0,60,0.00,CLR,,0.00,0.0,WeatherDisplay:10.37,2013-01-28 04:38:00,
2013-01-27 23:43:00,18.5,6.9,30.43,WSW,250,0.0,0.0,60,0.00,CLR,,0.00,0.0,WeatherDisplay:10.37,2013-01-28 04:43:00,
2013-01-27 23:48:00,18.6,7.0,30.43,WSW,250,0.0,0.0,60,0.00,CLR,,0.00,0.0,WeatherDisplay:10.37,2013-01-28 04:48:00,
2013-01-27 23:53:00,18.5,6.5,30.44,WSW,250,0.0,0.0,59,0.00,CLR,,0.00,0.0,WeatherDisplay:10.37,2013-01-28 04:53:00,
2013-01-27 23:58:00,18.4,6.4,30.43,WSW,250,0.0,0.0,59,0.00,CLR,,0.00,0.0,WeatherDisplay:10.37,2013-01-28 04:58:00,